,

(GMT )
Biscarosse

Weather History for LFBS - March, 2014

Change the Weather History Date:

Saturday, March 8, 2014

  Actual Average Record
Temperature  
Mean Temperature 58 °F -  
Max Temperature 72 °F - - ()
Min Temperature 43 °F - - ()
Degree Days  
Heating Degree Days 8    
Growing Degree Days 8 (Base 50)    
Moisture  
Dew Point 36 °F    
Average Humidity 41    
Maximum Humidity 67    
Minimum Humidity 13    
Precipitation  
Precipitation 0.00 in - - ()
Sea Level Pressure  
Sea Level Pressure 30.20 in    
Wind  
Wind Speed 7 mph ()    
Max Wind Speed 14 mph    
Max Gust Speed -    
T = Trace of Precipitation, MM = Missing Value Source: Averaged Metar Reports

Daily Weather History Graph

Daily Weather History Graph

Search for Another Location

Airport or City:

Trip Planner

Search our weather history database for the weather conditions in past years. The results will help you decide how hot, cold, wet, or windy it might be!

Date:

Astronomy

Mar. 08, 2014 Rise Set
Actual Time 7:30 AM CET 7:01 PM CET
Civil Twilight 7:01 AM CET 7:30 PM CET
Nautical Twilight 6:27 AM CET 8:04 PM CET
Astronomical Twilight 5:53 AM CET 8:38 PM CET
Moon 11:45 AM CET (3/8) 2:01 AM CET (3/8)
Length of Visible Light 12h 29m
Length of Day
11h 31m
Waxing Crescent, 49% of the Moon is Illuminated
Mar 8
Waxing Crescent
Mar 8
First Quarter
Mar 16
Full
Mar 24
Last Quarter
Mar 30
New

Hourly Weather History & Observations

Time (CET) Temp. Dew Point Humidity Pressure Visibility Wind Dir Wind Speed Gust Speed Precip Events Conditions
12:00 AM 50 °F 41 °F 62% 30.30 in - East 9.2 mph - -  
1:00 AM 49 °F 40 °F 62% 30.28 in - East 8.1 mph - -  
2:00 AM 47 °F 39 °F 67% 30.27 in - East 9.2 mph - -  
3:00 AM 46 °F 38 °F 65% 30.26 in - East 4.6 mph - -  
4:00 AM 46 °F 37 °F 62% 30.24 in - ESE 4.6 mph - -  
5:00 AM 46 °F 35 °F 56% 30.23 in - ESE 4.6 mph - -  
6:00 AM 44 °F 35 °F 61% 30.23 in - ESE 4.6 mph - -  
7:00 AM 44 °F 35 °F 60% 30.23 in - ESE 8.1 mph - -  
8:00 AM 43 °F 35 °F 66% 30.24 in - East 5.8 mph - -  
9:00 AM 47 °F 36 °F 57% 30.25 in - ESE 5.8 mph - -  
10:00 AM 54 °F 38 °F 44% 30.23 in - ESE 8.1 mph - -  
11:00 AM 59 °F 37 °F 33% 30.22 in - ESE 13.8 mph - -  
12:00 PM 63 °F 37 °F 26% 30.21 in - ESE 9.2 mph - -  
1:00 PM 66 °F 33 °F 19% 30.20 in - ESE 8.1 mph - -  
2:00 PM 70 °F 31 °F 14% 30.17 in - ESE 8.1 mph - -  
3:00 PM 71 °F 32 °F 14% 30.15 in - SE 5.8 mph - -  
4:00 PM 72 °F 32 °F 13% 30.13 in - East 5.8 mph - -  
5:00 PM 71 °F 33 °F 14% 30.12 in - ESE 6.9 mph - -  
6:00 PM 70 °F 30 °F 13% 30.12 in - East 5.8 mph - -  
7:00 PM 65 °F 34 °F 21% 30.12 in - East 6.9 mph - -  
8:00 PM 60 °F 40 °F 37% 30.13 in - East 8.1 mph - -  
9:00 PM 58 °F 38 °F 35% 30.13 in - East 10.4 mph - -  
10:00 PM 56 °F 37 °F 37% 30.13 in - ESE 11.5 mph - -  
11:00 PM 55 °F 37 °F 39% 30.13 in - ESE 12.7 mph - -